STARLINK-1302 (45375 NORAD) Tracking and Keplerian Element Data

This shows tracking and keplerian element data for the satellite.

Feedback or suggestion? Click here.




ElementValue
Catalog45375
NameSTARLINK-1302
Epoch Orbit1145
Epoch Day148.91667824
Epoch Year2020
RAAN286.7356
Inclination52.9996
Eccentricity0.0001375
Argument of Perigee92.48
Mean Anonmoly35.4782
Mean Motion15.05582487
Decay Rate-0.00010188
L11 45375U 20019R 20148.91667824 -.00010188 00000-0 -68103-3 0 9995
L22 45375 52.9996 286.7356 0001375 92.4800 35.4782 15.05582487 11457

Live tracking and technical data element details for STARLINK-1302 (NORAD 45375). STARLINK-1302 can be tracked NOW for your location showing map with azimuth and elevation plus other details from your city location.

Track the satellite on the map from your city or location and see movement details for azimuth, elevation, latitude, longitude, range, height, and movement on the map or in text.







IsCatalogInMostPopularTable: catalog: 45375, numindb: 55
Update: records affected: 1



GetName: 45375 STARLINK-1302

Hit Count: updated at: Sat, 30 May 2020 13:58:16 GMT